TimeCDT,TemperatureF,Dew PointF,Humidity,Sea Level PressureIn,VisibilityMPH,Wind Direction,Wind SpeedMPH,Gust SpeedMPH,PrecipitationIn,Events,Conditions,WindDirDegrees,DateUTC
12:56 AM,59.9,55.9,87,29.85,10.0,NE,10.4,-,N/A,,Clear,50,2014-04-07 05:56:00
1:56 AM,57.9,54.0,87,29.86,10.0,NE,8.1,-,N/A,,Clear,50,2014-04-07 06:56:00
2:56 AM,55.9,52.9,89,29.84,10.0,ENE,5.8,-,N/A,,Clear,70,2014-04-07 07:56:00
3:56 AM,54.9,52.0,90,29.83,10.0,East,4.6,-,N/A,,Clear,80,2014-04-07 08:56:00
4:56 AM,52.9,50.9,93,29.82,10.0,NE,3.5,-,N/A,,Clear,40,2014-04-07 09:56:00
5:56 AM,52.9,50.0,90,29.83,10.0,WNW,3.5,-,N/A,,Clear,290,2014-04-07 10:56:00
6:56 AM,52.0,50.0,93,29.87,10.0,West,3.5,-,N/A,,Clear,280,2014-04-07 11:56:00
7:56 AM,52.9,50.9,93,29.88,10.0,Calm,Calm,-,N/A,,Clear,0,2014-04-07 12:56:00
8:56 AM,59.9,52.0,75,29.90,10.0,Calm,Calm,-,N/A,,Clear,0,2014-04-07 13:56:00
9:56 AM,64.9,50.9,60,29.90,10.0,Variable,3.5,-,N/A,,Clear,0,2014-04-07 14:56:00
10:56 AM,69.8,51.8,53,29.91,10.0,Variable,3.5,-,N/A,,Clear,0,2014-04-07 15:56:00
11:56 AM,74.8,50.9,43,29.88,10.0,Variable,3.5,-,N/A,,Clear,0,2014-04-07 16:56:00
12:56 PM,82.9,52.0,34,29.86,10.0,SSW,5.8,-,N/A,,Clear,200,2014-04-07 17:56:00
1:56 PM,86.9,48.9,27,29.83,10.0,SSW,5.8,-,N/A,,Clear,200,2014-04-07 18:56:00
2:56 PM,86.9,45.9,24,29.79,10.0,NNW,8.1,-,N/A,,Mostly Cloudy,340,2014-04-07 19:56:00
3:56 PM,92.8,29.1,10,29.75,10.0,West,15.0,18.4,N/A,,Clear,280,2014-04-07 20:56:00
4:41 PM,89.6,44.6,21,29.78,10.0,NNE,13.8,39.1,N/A,,Partly Cloudy,30,2014-04-07 21:41:00
4:56 PM,88.9,45.9,22,29.75,10.0,NE,11.5,19.6,N/A,,Partly Cloudy,50,2014-04-07 21:56:00
5:56 PM,88.0,46.9,24,29.78,10.0,NNE,18.4,-,N/A,,Clear,30,2014-04-07 22:56:00
6:56 PM,84.9,43.9,24,29.82,10.0,NNE,13.8,-,N/A,,Clear,30,2014-04-07 23:56:00
7:56 PM,81.9,34.0,18,29.87,10.0,North,21.9,25.3,N/A,,Clear,350,2014-04-08 00:56:00
8:56 PM,77.9,41.9,28,29.94,10.0,ENE,10.4,-,N/A,,Clear,60,2014-04-08 01:56:00
9:56 PM,72.9,45.0,37,30.01,10.0,NE,5.8,-,N/A,,Clear,40,2014-04-08 02:56:00
10:56 PM,70.9,45.9,41,30.07,10.0,ENE,8.1,-,N/A,,Clear,60,2014-04-08 03:56:00
11:56 PM,68.0,45.0,43,30.10,10.0,NE,6.9,-,N/A,,Clear,40,2014-04-08 04:56:00